Weather History for Perry, FL

Change the Weather History Date:

Wednesday, July 2, 2014

  Actual Average (KCTY) Record (KCTY)
Temperature  
Mean Temperature 84 °F 81 °F  
Max Temperature 89 °F 91 °F 96 °F (1998)
Min Temperature 77 °F 71 °F 64 °F (2000)
Degree Days  
Heating Degree Days 0 0  
Month to date heating degree days 0  
Since 1 June heating degree days 0  
Since 1 July heating degree days 0  
Cooling Degree Days 20 16  
Month to date cooling degree days 32  
Year to date cooling degree days 958  
Since 1 June cooling degree days 479  
Growing Degree Days 34 (Base 50)    
Moisture  
Dew Point 73 °F    
Average Humidity 64    
Maximum Humidity 100    
Minimum Humidity 49    
Precipitation  
Precipitation 1.37 in 0.17 in 0.92 in (2005)
Month to date precipitation 0.33  
Year to date precipitation 22.59  
Sea Level Pressure  
Sea Level Pressure 29.94 in    
Wind  
Wind Speed 2 mph (NE)    
Max Wind Speed 18 mph    
Max Gust Speed 45 mph    
Visibility 9 miles    
Events Rain , Thunderstorm    
T = Trace of Precipitation, MM = Missing Value Source: NWS Daily Summary

Daily Weather History Graph

Daily Weather History Graph

Search for Another Location

Airport:

Trip Planner

Search our weather history database for the weather conditions in past years. The results will help you decide how hot, cold, wet, or windy it might be!

Date:

Astronomy

Jul. 02, 2014 Rise Set
Actual Time 6:37 AM EDT 8:39 PM EDT
Civil Twilight 6:09 AM EDT 9:06 PM EDT
Nautical Twilight 5:36 AM EDT 9:40 PM EDT
Astronomical Twilight 5:00 AM EDT 10:15 PM EDT
Moon 11:17 AM EDT (7/2) 11:56 PM EDT (7/2)
Length of Visible Light 14h 57m
Length of Day
14h 02m
Waxing Crescent, 24% of the Moon is Illuminated
Jul 2
Waxing Crescent
Jul 5
First Quarter
Jul 12
Full
Jul 18
Last Quarter
Jul 26
New

Hourly Weather History & Observations

Time (EDT) Temp. Heat Index Dew Point Humidity Pressure Visibility Wind Dir Wind Speed Gust Speed Precip Events Conditions
12:15 AM - - - N/A% 29.94 in 10.0 mi Calm Calm - N/A   Scattered Clouds
12:35 AM - - - N/A% 29.95 in 10.0 mi Calm Calm - N/A   Clear
1:15 AM - - - N/A% 29.95 in 10.0 mi Calm Calm - N/A   Clear
1:35 AM - - - N/A% 29.94 in 10.0 mi Calm Calm - N/A   Clear
1:55 AM - - - N/A% 29.94 in 7.0 mi Calm Calm - N/A   Clear
2:15 AM - - - N/A% 29.94 in 7.0 mi Calm Calm - N/A   Clear
2:35 AM - - - N/A% 29.95 in 10.0 mi East 3.5 mph - N/A   Clear
2:55 AM - - - N/A% 29.95 in 10.0 mi SE 3.5 mph - N/A   Clear
3:15 AM - - - N/A% 29.94 in 10.0 mi ESE 3.5 mph - N/A   Clear
3:35 AM - - - N/A% 29.94 in 10.0 mi Calm Calm - N/A   Clear
3:55 AM - - - N/A% 29.93 in 10.0 mi Calm Calm - N/A   Clear
4:15 AM - - - N/A% 29.93 in 10.0 mi Calm Calm - N/A   Clear
4:35 AM - - - N/A% 29.93 in 10.0 mi ESE 3.5 mph - N/A   Clear
4:55 AM - - - N/A% 29.93 in 10.0 mi Calm Calm - N/A   Clear
5:15 AM - - - N/A% 29.92 in 10.0 mi Calm Calm - N/A   Clear
5:35 AM - - - N/A% 29.92 in 10.0 mi Calm Calm - N/A   Clear
5:55 AM - - - N/A% 29.94 in 7.0 mi Calm Calm - N/A   Clear
6:15 AM - - - N/A% 29.94 in 7.0 mi Calm Calm - N/A   Scattered Clouds
6:35 AM - - - N/A% 29.94 in 5.0 mi Calm Calm - N/A Thunderstorm Haze
6:55 AM - - - N/A% 29.94 in 7.0 mi Calm Calm - N/A   Scattered Clouds
7:15 AM - - - N/A% 29.94 in 10.0 mi Calm Calm - N/A   Scattered Clouds
7:35 AM - - - N/A% 29.94 in 10.0 mi Calm Calm - N/A   Scattered Clouds
7:55 AM - - - N/A% 29.94 in 10.0 mi ENE 3.5 mph - N/A   Clear
8:15 AM - - - N/A% 29.94 in 10.0 mi ENE 3.5 mph - N/A   Clear
8:35 AM - - - N/A% 29.95 in 10.0 mi Calm Calm - N/A   Clear
8:55 AM - - - N/A% 29.95 in 10.0 mi East 3.5 mph - N/A   Clear
9:15 AM - - - N/A% 29.95 in 10.0 mi Calm Calm - N/A   Clear
9:35 AM - - - N/A% 29.95 in 10.0 mi ENE 3.5 mph - N/A   Clear
9:55 AM 80.6 °F 89.3 °F 80.6 °F 100% 29.94 in 10.0 mi NNE 3.5 mph - N/A   Clear
10:15 AM 82.4 °F 92.4 °F 78.8 °F 89% 29.95 in 10.0 mi ENE 3.5 mph - N/A   Clear
10:35 AM 84.2 °F 94.1 °F 77.0 °F 79% 29.95 in 10.0 mi ESE 4.6 mph - N/A   Clear
10:55 AM 86.0 °F 91.8 °F 71.6 °F 62% 29.95 in 10.0 mi ESE 4.6 mph - N/A   Clear
11:15 AM 86.0 °F 91.8 °F 71.6 °F 62% 29.95 in 10.0 mi Calm Calm - N/A   Clear
11:35 AM 87.8 °F 93.8 °F 71.6 °F 58% 29.96 in 10.0 mi NNE 3.5 mph - N/A   Clear
11:55 AM 87.8 °F 93.8 °F 71.6 °F 58% 29.96 in 10.0 mi NE 3.5 mph - N/A   Clear
12:15 PM 87.8 °F 93.8 °F 71.6 °F 58% 29.96 in 10.0 mi Calm Calm - N/A   Clear
12:35 PM 87.8 °F 92.6 °F 69.8 °F 55% 29.96 in 10.0 mi NNE 5.8 mph - N/A   Clear
12:55 PM 87.8 °F 92.6 °F 69.8 °F 55% 29.95 in 10.0 mi East 3.5 mph - N/A   Clear
1:15 PM 89.6 °F 94.7 °F 69.8 °F 52% 29.95 in 10.0 mi NE 3.5 mph - N/A   Scattered Clouds
1:35 PM 89.6 °F 94.7 °F 69.8 °F 52% 29.94 in 10.0 mi East 5.8 mph - N/A   Scattered Clouds
1:55 PM 89.6 °F 94.7 °F 69.8 °F 52% 29.95 in 10.0 mi North 5.8 mph - N/A   Clear
2:15 PM 89.6 °F 94.7 °F 69.8 °F 52% 29.94 in 10.0 mi ENE 5.8 mph - N/A   Mostly Cloudy
2:35 PM 89.6 °F 94.7 °F 69.8 °F 52% 29.94 in 10.0 mi East 3.5 mph - N/A   Scattered Clouds
2:55 PM 89.6 °F 94.7 °F 69.8 °F 52% 29.94 in 10.0 mi NNE 4.6 mph - N/A   Scattered Clouds
3:15 PM 89.6 °F 94.7 °F 69.8 °F 52% 29.93 in 10.0 mi NNE 4.6 mph - N/A   Scattered Clouds
3:35 PM 89.6 °F 96.2 °F 71.6 °F 55% 29.92 in 10.0 mi NNE 9.2 mph - N/A   Clear
3:55 PM 89.6 °F 96.2 °F 71.6 °F 55% 29.91 in 10.0 mi NNE 6.9 mph - N/A   Clear
4:15 PM 89.6 °F 93.4 °F 68.0 °F 49% 29.92 in 10.0 mi North 4.6 mph - N/A   Scattered Clouds
4:35 PM 89.6 °F 93.4 °F 68.0 °F 49% 29.92 in 10.0 mi North 6.9 mph - N/A   Clear
4:55 PM 89.6 °F 94.7 °F 69.8 °F 52% 29.91 in 10.0 mi North 5.8 mph - N/A   Clear
5:15 PM 89.6 °F 94.7 °F 69.8 °F 52% 29.91 in 10.0 mi NE 3.5 mph - N/A   Clear
5:35 PM 89.6 °F 93.4 °F 68.0 °F 49% 29.91 in 10.0 mi Calm Calm - N/A Thunderstorm Clear
6:55 PM 87.8 °F 99.7 °F 77.0 °F 70% 29.90 in 10.0 mi SSW 6.9 mph - N/A   Scattered Clouds
7:15 PM 86.0 °F 99.3 °F 78.8 °F 79% 29.90 in 10.0 mi SSW 5.8 mph - N/A   Scattered Clouds
7:35 PM 86.0 °F 111.5 °F 86.0 °F 100% 29.91 in 10.0 mi SW 6.9 mph - N/A   Scattered Clouds
7:55 PM 84.2 °F 94.1 °F 77.0 °F 79% 29.91 in 10.0 mi WSW 11.5 mph - N/A Thunderstorm Scattered Clouds
8:15 PM 80.6 °F 86.2 °F 75.2 °F 84% 29.95 in 1.8 mi West 18.4 mph 44.9 mph 0.24 in Rain Heavy Rain
8:35 PM 77.0 °F - 75.2 °F 94% 29.92 in 1.0 mi NNW 11.5 mph 43.7 mph 1.20 in Rain , Thunderstorm Heavy Thunderstorms and Rain
8:55 PM - - - N/A% 29.93 in 7.0 mi West 9.2 mph - 1.37 in Rain , Thunderstorm Light Thunderstorms and Rain
9:15 PM - - - N/A% 29.92 in 10.0 mi WSW 5.8 mph - N/A Rain , Thunderstorm Light Thunderstorms and Rain
9:35 PM - - - N/A% 29.94 in 10.0 mi SW 3.5 mph - N/A Thunderstorm Thunderstorm
9:55 PM - - - N/A% 29.92 in 10.0 mi South 3.5 mph - N/A Thunderstorm Scattered Clouds
10:15 PM - - - N/A% 29.94 in 10.0 mi SW 4.6 mph - N/A Thunderstorm Scattered Clouds
10:35 PM - - - N/A% 29.93 in 10.0 mi Calm Calm - N/A Thunderstorm Scattered Clouds
10:55 PM - - - N/A% 29.94 in 10.0 mi Calm Calm - N/A Thunderstorm Clear
11:15 PM - - - N/A% 29.95 in 10.0 mi WSW 3.5 mph - N/A Thunderstorm Mostly Cloudy
11:35 PM - - - N/A% 29.95 in 10.0 mi Calm Calm - N/A Thunderstorm Scattered Clouds
11:55 PM - - - N/A% 29.97 in 10.0 mi Calm Calm - N/A   Scattered Clouds